Location: Auckland
(36.8670°S, 174.7670°E)
Time: 08:50:12
(UTC+13:00)

Cosmos 1805 Rocket - Pass Details

Date: 24 January 2019
Orbit: 606 x 630 km, 82.5° (Epoch: 20 October)

Event Time Altitude Azimuth Distance (km) Brightness Sun altitude
Rises 21:11:52 0° 190° (S) 2,903 7.6 -6.8°
Reaches altitude 10° 21:14:07 10° 192° (SSW) 1,989 6.8 -7.2°
Maximum altitude 21:18:29 72° 274° (W) 650 3.9 -7.9°
Drops below altitude 10° 21:22:48 10° 359° (N) 1,959 5.8 -8.7°
Sets 21:25:00 0° 0° (N) 2,855 6.6 -9.0°
